Morristown, NJ

5:16 PM EDT on October 14, 2019 (GMT -0400)
Morristown Municipal

Weather History for KMMU - September, 2019

Change the Weather History Date:

Thursday, September 19, 2019

  Actual Average Record
Temperature  
Mean Temperature 53 °F -  
Max Temperature 69 °F 74 °F 92 °F (1946)
Min Temperature 37 °F 52 °F 34 °F (1939)
Degree Days  
Heating Degree Days 12    
Growing Degree Days 3 (Base 50)    
Moisture  
Dew Point 43 °F    
Average Humidity 85    
Maximum Humidity 100    
Minimum Humidity 31    
Precipitation  
Precipitation 0.00 in - - ()
Sea Level Pressure  
Sea Level Pressure 30.32 in    
Wind  
Wind Speed 1 mph ()    
Max Wind Speed 7 mph    
Max Gust Speed -    
Visibility 8.8 miles    
Events Fog    
Averages and records for this station are not official NWS values.
T = Trace of Precipitation, MM = Missing Value Source: Averaged Metar Reports

Daily Weather History Graph

Daily Weather History Graph

Search for Another Location

Airport or City:

Astronomy

Sep. 19, 2019 Rise Set
Actual Time 6:41 AM EDT 7:00 PM EDT
Civil Twilight 6:14 AM EDT 7:27 PM EDT
Nautical Twilight 5:42 AM EDT 7:59 PM EDT
Astronomical Twilight 5:09 AM EDT 8:32 PM EDT
Moon 10:05 PM EDT (9/19) 11:44 AM EDT (9/19)
Length of Visible Light 13h 13m
Length of Day
12h 18m
Waning Gibbous, 74% of the Moon is Illuminated
Sep 19
Waning Gibbous
Sep 21
Last Quarter
Sep 28
New
Oct 5
First Quarter
Oct 13
Full

Hourly Weather History & Observations

Time (EDT) Temp. Windchill Dew Point Humidity Pressure Visibility Wind Dir Wind Speed Gust Speed Precip Events Conditions
12:15 AM 46.4 °F - 46.4 °F 100% 30.32 in 10.0 mi Calm Calm - N/A   Clear
12:35 AM 46.4 °F 45.2 °F 46.4 °F 100% 30.32 in 10.0 mi NNE 3.5 mph - N/A   Clear
12:55 AM 46.4 °F 45.2 °F 46.4 °F 100% 30.32 in 10.0 mi North 3.5 mph - N/A   Clear
1:15 AM 44.6 °F 42.2 °F 44.6 °F 100% 30.33 in 10.0 mi NNE 4.6 mph - N/A   Clear
1:35 AM 46.4 °F 44.3 °F 46.4 °F 100% 30.33 in 10.0 mi NNE 4.6 mph - N/A   Clear
1:55 AM 48.2 °F - 46.4 °F 93% 30.33 in 10.0 mi NNE 4.6 mph - N/A   Clear
2:15 AM 48.2 °F - 46.4 °F 93% 30.33 in 10.0 mi NE 4.6 mph - N/A   Clear
2:35 AM 46.4 °F - 46.4 °F 100% 30.32 in 10.0 mi Calm Calm - N/A   Clear
2:55 AM 48.2 °F - 46.4 °F 93% 30.32 in 10.0 mi NNW 3.5 mph - N/A   Clear
3:15 AM 44.6 °F - 44.6 °F 100% 30.32 in 10.0 mi Calm Calm - N/A   Clear
3:35 AM 42.8 °F - 42.8 °F 100% 30.32 in 10.0 mi Calm Calm - N/A   Clear
3:55 AM 42.8 °F - 42.8 °F 100% 30.33 in 10.0 mi Calm Calm - N/A   Clear
4:15 AM 42.8 °F - 42.8 °F 100% 30.33 in 4.0 mi Calm Calm - N/A   Clear
4:35 AM 41.0 °F - 41.0 °F 100% 30.34 in 7.0 mi Calm Calm - N/A   Clear
4:55 AM 41.0 °F - 41.0 °F 100% 30.33 in 1.0 mi Calm Calm - N/A   Mist
5:15 AM 41.0 °F - 41.0 °F 100% 30.33 in 10.0 mi Calm Calm - N/A   Clear
5:35 AM 39.2 °F - 39.2 °F 100% 30.33 in 10.0 mi Calm Calm - N/A   Clear
5:55 AM 39.2 °F - 39.2 °F 100% 30.33 in 0.5 mi Calm Calm - N/A Fog Fog
6:15 AM 39.2 °F - 39.2 °F 100% 30.34 in 0.8 mi Calm Calm - N/A   Mostly Cloudy
6:35 AM 37.4 °F - 37.4 °F 100% 30.34 in 1.2 mi Calm Calm - N/A   Scattered Clouds
6:45 AM 39.2 °F - 39.2 °F 100% 30.36 in 10.0 mi Calm Calm - N/A   Clear
7:45 AM 44.6 °F - 44.6 °F 100% 30.38 in 10.0 mi Calm Calm - N/A   Clear
8:50 AM 51.8 °F - 48.2 °F 88% 30.39 in 10.0 mi Calm Calm - N/A   Clear
9:47 AM 57.2 °F - 46.4 °F 67% 30.39 in 10.0 mi ENE 4.6 mph - N/A   Clear
11:45 AM 62.6 °F - 41.0 °F 45% 30.38 in 10.0 mi SSE 4.6 mph - N/A   Clear
12:45 PM 66.2 °F - 41.0 °F 40% 30.36 in 10.0 mi Calm Calm - N/A   Clear
1:50 PM 68.0 °F - 39.2 °F 35% 30.32 in 10.0 mi Calm Calm - N/A   Clear
2:45 PM 68.0 °F - 41.0 °F 37% 30.32 in 10.0 mi West 3.5 mph - N/A   Clear
3:45 PM 69.8 °F - 37.4 °F 31% 30.31 in 10.0 mi Calm Calm - N/A   Clear
4:45 PM 69.8 °F - 41.0 °F 35% 30.30 in 10.0 mi Calm Calm - N/A   Clear
5:45 PM 69.8 °F - 41.0 °F 35% 30.29 in 10.0 mi SW 6.9 mph - N/A   Partly Cloudy
6:45 PM 66.2 °F - 48.2 °F 52% 30.30 in 10.0 mi SSW 3.5 mph - N/A   Partly Cloudy
8:45 PM 48.2 °F - 48.2 °F 100% 30.29 in 10.0 mi Calm Calm - N/A   Clear
9:45 PM 48.2 °F - 46.4 °F 93% 30.28 in 10.0 mi Calm Calm - N/A   Clear
10:35 PM 42.8 °F - 42.8 °F 100% 30.28 in 10.0 mi Calm Calm - N/A   Clear
10:55 PM 44.6 °F - 42.8 °F 93% 30.28 in 10.0 mi Calm Calm - N/A   Clear
11:15 PM 42.8 °F - 42.8 °F 100% 30.29 in 10.0 mi Calm Calm - N/A   Clear
11:35 PM 42.8 °F - 41.0 °F 93% 30.29 in 10.0 mi Calm Calm - N/A   Clear
11:55 PM 41.0 °F - 41.0 °F 100% 30.29 in 10.0 mi Calm Calm - N/A   Clear